^^
Grace C. Lehan Memorial Weather Station Historical Data
Daily Summary for September 15, 2021 Units:  Metric    English   Both
Daily Weekly Monthly Yearly
  High: Low: Average:
Temperature: 10.1 °C 2.1 °C 6.1 °C
Dew Point: 5.1 °C 0.6 °C 2.4 °C
Humidity: 95% 59% 79%
Wind Speed: 14km/h 0km/h 2.1km/h
Wind Gust: 29km/h - -
Wind- - West
Pressure: 1010 hPa 1005 hPa -
Precipitation: 0.25 mm    
 
 
Tabular Data for September 15, 2021
Time Temperature Dew Point Pressure Wind Wind Speed Wind Gust Humidity Rainfall Rate (Hourly) solar
00:04 5.9 °C 3.7 °C 1007.7 hPa Calm   9.7 km/h 85.6% 0.76 mm 0 W/m2
00:09 5.8 °C 3.7 °C 1007.3 hPa WSW 0.3 km/h 4.8 km/h 86% 0.76 mm 0 W/m2
00:14 5.8 °C 3.7 °C 1007.3 hPa Calm   4.8 km/h 86.3% 0.76 mm 0 W/m2
00:19 5.7 °C 3.7 °C 1007.3 hPa Calm   4.8 km/h 87% 0.76 mm 0 W/m2
00:24 5.7 °C 3.7 °C 1007.3 hPa Calm   4.8 km/h 87% 0.76 mm 0 W/m2
00:29 5.6 °C 3.7 °C 1007.3 hPa Calm   4.8 km/h 87.6% 0.76 mm 0 W/m2
00:34 5.6 °C 3.7 °C 1007.3 hPa Calm   4.8 km/h 88% 0.76 mm 0 W/m2
00:39 5.6 °C 3.7 °C 1007.3 hPa Calm     88% 0.51 mm 0 W/m2
00:44 5.5 °C 3.7 °C 1007 hPa Calm     88% 0.51 mm 0 W/m2
00:49 5.4 °C 3.7 °C 1007 hPa Calm     88.2% 0.51 mm 0 W/m2
00:54 5.4 °C 3.7 °C 1007 hPa Calm     89% 0.51 mm 0 W/m2
00:59 5.3 °C 3.7 °C 1007 hPa Calm     89% 0.51 mm 0 W/m2
01:04 5.3 °C 3.6 °C 1007.3 hPa Calm     89% 0.51 mm 0 W/m2
01:09 5.2 °C 3.6 °C 1007.3 hPa Calm     89% 0.25 mm 0 W/m2
01:14 5.2 °C 3.5 °C 1007.3 hPa Calm     89% 0.25 mm 0 W/m2
01:19 5.1 °C 3.5 °C 1007 hPa Calm     89.4% 0.25 mm 0 W/m2
01:24 5.1 °C 3.6 °C 1007 hPa Calm     90% 0.25 mm 0 W/m2
01:29 5.1 °C 3.6 °C 1007 hPa Calm     90% 0.25 mm 0 W/m2
01:34 5.1 °C 3.6 °C 1006.7 hPa Calm     90% 0.25 mm 0 W/m2
01:39 5.1 °C 3.6 °C 1006.7 hPa Calm     90% 0 mm 0 W/m2
01:44 5.1 °C 3.7 °C 1006.7 hPa Calm     90.6% 0 mm 0 W/m2
01:49 5.1 °C 3.7 °C 1006.7 hPa Calm     91% 0 mm 0 W/m2
01:54 5.1 °C 3.7 °C 1007 hPa Calm     91% 0 mm 0 W/m2
01:59 5.1 °C 3.8 °C 1007 hPa Calm     91% 0 mm 0 W/m2
02:04 5.1 °C 3.8 °C 1007 hPa Calm     91% 0 mm 0 W/m2
02:09 5.1 °C 3.8 °C 1007 hPa Calm     91% 0 mm 0 W/m2
02:14 5.2 °C 3.8 °C 1006.7 hPa Calm     91% 0 mm 0 W/m2
02:19 5.2 °C 3.8 °C 1006.7 hPa Calm     91% 0 mm 0 W/m2
02:24 5.2 °C 3.9 °C 1006.7 hPa Calm     91.7% 0 mm 0 W/m2
02:29 5.2 °C 3.9 °C 1006.3 hPa Calm     91.6% 0 mm 0 W/m2
02:34 5.2 °C 3.9 °C 1006.3 hPa Calm     91.9% 0 mm 0 W/m2
02:39 5.2 °C 3.8 °C 1006 hPa Calm     91% 0 mm 0 W/m2
02:44 5.2 °C 3.8 °C 1006 hPa WSW 0.2 km/h 3.2 km/h 91% 0 mm 0 W/m2
02:49 5.2 °C 3.8 °C 1006 hPa Calm   3.2 km/h 91% 0 mm 0 W/m2
02:54 5.1 °C 3.8 °C 1006 hPa Calm   3.2 km/h 91% 0 mm 0 W/m2
02:59 5.1 °C 3.7 °C 1005.6 hPa Calm   3.2 km/h 91% 0 mm 0 W/m2
03:04 5.1 °C 3.7 °C 1005.6 hPa Calm   3.2 km/h 91% 0 mm 0 W/m2
03:09 5 °C 3.6 °C 1005.6 hPa Calm     91% 0 mm 0 W/m2
03:14 4.9 °C 3.6 °C 1005.6 hPa Calm     91% 0 mm 0 W/m2
03:19 4.8 °C 3.5 °C 1005.6 hPa Calm     91% 0 mm 0 W/m2
03:24 4.8 °C 3.4 °C 1005.6 hPa Calm     91% 0 mm 0 W/m2
03:29 4.8 °C 3.4 °C 1005.6 hPa Calm     91% 0 mm 0 W/m2
03:34 4.7 °C 3.4 °C 1005.6 hPa Calm     91% 0 mm 0 W/m2
03:39 4.7 °C 3.3 °C 1005.6 hPa Calm     91% 0 mm 0 W/m2
03:44 4.6 °C 3.3 °C 1005.6 hPa Calm     91% 0 mm 0 W/m2
03:49 4.6 °C 3.2 °C 1005.6 hPa Calm     91% 0 mm 0 W/m2
03:54 4.4 °C 3.1 °C 1005.6 hPa Calm     91% 0 mm 0 W/m2
03:59 4.4 °C 3.1 °C 1005.6 hPa Calm     91% 0 mm 0 W/m2
04:00 4.3 °C 3 °C 1005.3 hPa Calm     91% 0 mm 0 W/m2
04:09 4.2 °C 2.9 °C 1005.3 hPa Calm     91% 0 mm 0 W/m2
04:14 4.2 °C 2.8 °C 1005.3 hPa Calm     91% 0 mm 0 W/m2
04:19 4.1 °C 2.7 °C 1005.3 hPa Calm     91% 0 mm 0 W/m2
04:24 4 °C 2.7 °C 1005.3 hPa Calm     91% 0 mm 0 W/m2
04:29 3.9 °C 2.6 °C 1005.3 hPa Calm     91% 0 mm 0 W/m2
04:34 3.8 °C 2.5 °C 1005.3 hPa Calm     91% 0 mm 0 W/m2
04:39 3.8 °C 2.4 °C 1005.3 hPa Calm     91% 0 mm 0 W/m2
04:44 3.7 °C 2.3 °C 1005.3 hPa Calm     91% 0 mm 0 W/m2
04:49 3.6 °C 2.3 °C 1005.3 hPa Calm     91% 0 mm 0 W/m2
04:54 3.5 °C 2.2 °C 1005.3 hPa Calm     91% 0 mm 0 W/m2
04:59 3.4 °C 2.1 °C 1005.6 hPa Calm     91% 0 mm 0 W/m2
05:04 3.3 °C 2 °C 1005.6 hPa Calm     91% 0 mm 0 W/m2
05:09 3.2 °C 1.9 °C 1005.3 hPa Calm     91% 0 mm 0 W/m2
05:14 3.1 °C 1.7 °C 1005.3 hPa Calm     91% 0 mm 0 W/m2
05:19 2.9 °C 1.6 °C 1005.3 hPa Calm     91% 0 mm 0 W/m2
05:24 2.8 °C 1.5 °C 1005.3 hPa Calm     91% 0 mm 0 W/m2
05:29 2.8 °C 1.6 °C 1005 hPa Calm     91.6% 0 mm 0 W/m2
05:34 2.7 °C 1.6 °C 1005.3 hPa Calm     92% 0 mm 0 W/m2
05:39 2.7 °C 1.6 °C 1005 hPa Calm     92% 0 mm 0 W/m2
05:44 2.7 °C 1.6 °C 1005 hPa Calm     92% 0 mm 0 W/m2
05:49 2.7 °C 1.6 °C 1005 hPa Calm     92% 0 mm 0 W/m2
05:54 2.7 °C 1.5 °C 1005 hPa Calm     92% 0 mm 0 W/m2
05:59 2.6 °C 1.5 °C 1005 hPa Calm     92.5% 0 mm 0 W/m2
06:04 2.5 °C 1.4 °C 1005 hPa Calm     92.7% 0 mm 0 W/m2
06:09 2.5 °C 1.3 °C 1005 hPa Calm     92% 0 mm 0 W/m2
06:14 2.4 °C 1.3 °C 1005 hPa Calm     92.8% 0 mm 0 W/m2
06:19 2.3 °C 1.3 °C 1005 hPa Calm     93% 0 mm 0 W/m2
06:24 2.3 °C 1.3 °C 1005 hPa Calm     93% 0 mm 0 W/m2
06:29 2.2 °C 1.2 °C 1005 hPa Calm     93% 0 mm 0 W/m2
06:34 2.2 °C 1.2 °C 1005 hPa Calm     93% 0 mm 0 W/m2
06:39 2.1 °C 1.1 °C 1005 hPa Calm     93% 0 mm 0 W/m2
06:44 2.1 °C 1.1 °C 1005 hPa Calm     93% 0 mm 0 W/m2
06:49 2.1 °C 1.1 °C 1005 hPa Calm   1.6 km/h 93% 0 mm 5 W/m2
06:54 2.1 °C 1.1 °C 1005.3 hPa Calm   1.6 km/h 93% 0 mm 11 W/m2
06:59 2.2 °C 1.2 °C 1005.3 hPa Calm   1.6 km/h 93% 0 mm 12 W/m2
07:04 2.2 °C 1.2 °C 1005.3 hPa Calm   1.6 km/h 93.2% 0 mm 18 W/m2
07:09 2.2 °C 1.3 °C 1005.3 hPa Calm   1.6 km/h 94% 0 mm 23 W/m2
07:14 2.3 °C 1.4 °C 1005.3 hPa WSW 0.2 km/h 1.6 km/h 94% 0 mm 42 W/m2
07:19 2.4 °C 1.6 °C 1005.3 hPa WSW 0.2 km/h 4.8 km/h 94% 0 mm 32 W/m2
07:24 2.6 °C 1.7 °C 1005.6 hPa Calm   4.8 km/h 94% 0 mm 35 W/m2
07:29 2.7 °C 1.8 °C 1005.6 hPa WSW 0.2 km/h 4.8 km/h 94% 0 mm 42 W/m2
07:34 2.8 °C 1.9 °C 1005.6 hPa Calm   4.8 km/h 94% 0 mm 49 W/m2
07:39 2.9 °C 2.1 °C 1005.6 hPa WSW 0.2 km/h 3.2 km/h 94% 0 mm 44 W/m2
07:44 3 °C 2.2 °C 1005.6 hPa WSW 0.2 km/h 3.2 km/h 94% 0 mm 56 W/m2
07:49 3.1 °C 2.2 °C 1005.3 hPa Calm   3.2 km/h 94% 0 mm 72 W/m2
07:54 3.2 °C 2.3 °C 1005.3 hPa Calm   3.2 km/h 94% 0 mm 70 W/m2
07:59 3.3 °C 2.4 °C 1005.3 hPa Calm   3.2 km/h 94% 0 mm 58 W/m2
08:00 3.4 °C 2.5 °C 1005.3 hPa Calm   3.2 km/h 94% 0 mm 58 W/m2
08:09 3.7 °C 2.9 °C 1005 hPa Calm     95% 0 mm 186 W/m2
08:30 5.8 °C 5.1 °C 1005.3 hPa Calm   14.5 km/h 95% 0 mm 214 W/m2
09:00 7.3 °C 4.2 °C 1005.3 hPa WSW 3.2 km/h 17.7 km/h 81% 0 mm 249 W/m2
09:30 6.5 °C 3.7 °C 1005.3 hPa West 1.6 km/h 19.3 km/h 82% 0 mm 97 W/m2
10:00 7.2 °C 3.6 °C 1005.3 hPa Calm   14.5 km/h 78% 0 mm 124 W/m2
10:30 7.8 °C 3.6 °C 1005.3 hPa Calm   11.3 km/h 75% 0 mm 153 W/m2
11:00 8.3 °C 3.8 °C 1005.3 hPa West 1.6 km/h 11.3 km/h 73% 0 mm 192 W/m2
11:30 9.1 °C 3.9 °C 1005.3 hPa WSW 1.6 km/h 14.5 km/h 70% 0 mm 213 W/m2
12:04 8.9 °C 2.5 °C 1005 hPa WNW 2.1 km/h 8 km/h 64% 0 mm 141 W/m2
12:09 8.9 °C 2.8 °C 1005 hPa WNW 2.9 km/h 14.5 km/h 65.3% 0 mm 127 W/m2
12:14 8.8 °C 2.6 °C 1005 hPa West 6.4 km/h 17.7 km/h 64.7% 0 mm 134 W/m2
12:19 8.8 °C 2.4 °C 1005.3 hPa West 2.1 km/h 17.7 km/h 64.1% 0 mm 118 W/m2
12:24 8.8 °C 2.7 °C 1005.3 hPa West 3.7 km/h 17.7 km/h 65.4% 0 mm 114 W/m2
12:29 8.8 °C 2.6 °C 1005.3 hPa West 4 km/h 22.5 km/h 65.1% 0 mm 102 W/m2
12:34 8.7 °C 2.4 °C 1005.3 hPa West 2.7 km/h 22.5 km/h 64.4% 0 mm 113 W/m2
12:39 8.7 °C 2.3 °C 1005 hPa West 6.9 km/h 20.9 km/h 64.1% 0 mm 134 W/m2
12:44 8.7 °C 2.2 °C 1005 hPa West 4.5 km/h 20.9 km/h 64% 0 mm 134 W/m2
12:49 8.7 °C 2.3 °C 1005 hPa WSW 4.7 km/h 20.9 km/h 64.5% 0 mm 116 W/m2
12:54 8.6 °C 2.2 °C 1005 hPa WSW 3.4 km/h 20.9 km/h 64.2% 0 mm 88 W/m2
12:59 8.6 °C 2.3 °C 1005 hPa West 4.7 km/h 20.9 km/h 64.8% 0 mm 100 W/m2
13:04 8.5 °C 2.3 °C 1005 hPa WSW 3.1 km/h 20.9 km/h 65.1% 0 mm 100 W/m2
13:09 8.4 °C 2.4 °C 1005 hPa West 4.3 km/h 16.1 km/h 65.6% 0 mm 123 W/m2
13:14 8.5 °C 2.6 °C 1005 hPa WNW 1.9 km/h 16.1 km/h 66% 0 mm 325 W/m2
13:19 8.7 °C 2.9 °C 1005 hPa WNW 4 km/h 17.7 km/h 67.1% 0 mm 376 W/m2
13:24 9 °C 2.9 °C 1005 hPa West 5.6 km/h 19.3 km/h 65.5% 0 mm 227 W/m2
13:29 9.2 °C 2.7 °C 1005 hPa West 7.7 km/h 22.5 km/h 63.6% 0 mm 239 W/m2
13:34 9.5 °C 3.1 °C 1005 hPa West 2.4 km/h 22.5 km/h 64.2% 0 mm 239 W/m2
13:39 9.7 °C 3.2 °C 1005 hPa WSW 5.3 km/h 25.7 km/h 64% 0 mm 262 W/m2
13:44 9.9 °C 2.8 °C 1005 hPa West 6.6 km/h 25.7 km/h 61.5% 0 mm 306 W/m2
13:49 10.1 °C 2.9 °C 1005 hPa WSW 6.6 km/h 25.7 km/h 61.2% 0 mm 306 W/m2
13:54 10.1 °C 3.2 °C 1005.3 hPa West 5 km/h 25.7 km/h 62% 0 mm 295 W/m2
13:59 10.1 °C 2.6 °C 1005.3 hPa West 10.6 km/h 29 km/h 59.5% 0 mm 244 W/m2
14:04 9.9 °C 2.2 °C 1005.3 hPa West 8.5 km/h 29 km/h 59% 0 mm 88 W/m2
14:09 9.6 °C 2.2 °C 1005.3 hPa West 7.2 km/h 19.3 km/h 60.2% 0 mm 109 W/m2
14:14 9.3 °C 2.4 °C 1005.3 hPa WNW 8.5 km/h 22.5 km/h 62% 0 mm 149 W/m2
14:19 9.1 °C 2.6 °C 1005.3 hPa West 3.1 km/h 22.5 km/h 63.4% 0 mm 135 W/m2
14:24 9.1 °C 2.7 °C 1005.3 hPa WNW 9.3 km/h 22.5 km/h 64.3% 0 mm 127 W/m2
14:29 9 °C 2.6 °C 1005.6 hPa WNW 8.4 km/h 22.5 km/h 63.8% 0 mm 114 W/m2
14:34 8.9 °C 2.6 °C 1005.6 hPa West 4.8 km/h 22.5 km/h 64.4% 0 mm 98 W/m2
14:39 8.9 °C 2.7 °C 1005.6 hPa WNW 5 km/h 20.9 km/h 65% 0 mm 93 W/m2
14:44 8.9 °C 2.8 °C 1005.6 hPa West 3.2 km/h 20.9 km/h 65.3% 0 mm 81 W/m2
14:49 9 °C 2.7 °C 1005.6 hPa WNW 11.6 km/h 29 km/h 64.8% 0 mm 69 W/m2
14:54 8.9 °C 2.5 °C 1006 hPa WNW 4.7 km/h 29 km/h 64.2% 0 mm 60 W/m2
14:59 8.8 °C 2.6 °C 1006 hPa West 2.7 km/h 29 km/h 65.2% 0 mm 46 W/m2
15:04 8.7 °C 2.6 °C 1006.3 hPa WNW 8.4 km/h 29 km/h 65.3% 0 mm 35 W/m2
15:09 8.6 °C 2.4 °C 1006.3 hPa West 6.9 km/h 22.5 km/h 65% 0 mm 58 W/m2
15:14 8.6 °C 2.4 °C 1006.3 hPa West 2.7 km/h 22.5 km/h 65.3% 0 mm 58 W/m2
15:19 8.6 °C 2.7 °C 1006.3 hPa West 0.5 km/h 22.5 km/h 66.4% 0 mm 47 W/m2
15:24 8.6 °C 2.8 °C 1006.3 hPa WSW 1.3 km/h 22.5 km/h 66.7% 0 mm 47 W/m2
15:29 8.6 °C 2.8 °C 1006.7 hPa West 0.5 km/h 22.5 km/h 67.1% 0 mm 39 W/m2
15:34 8.5 °C 2.8 °C 1006.7 hPa WSW 2.4 km/h 22.5 km/h 67.4% 0 mm 35 W/m2
15:39 8.4 °C 2.7 °C 1006.3 hPa WSW 1.3 km/h 14.5 km/h 67% 0 mm 33 W/m2
15:44 8.3 °C 2.6 °C 1006.7 hPa WSW 1.8 km/h 14.5 km/h 67.3% 0 mm 33 W/m2
15:49 8.2 °C 2.6 °C 1006.7 hPa West 1.6 km/h 14.5 km/h 68% 0 mm 23 W/m2
15:54 8.1 °C 2.4 °C 1006.7 hPa WSW 2.1 km/h 14.5 km/h 67.6% 0 mm 18 W/m2
15:59 8 °C 2.4 °C 1006.7 hPa SW 0.3 km/h 14.5 km/h 68% 0 mm 19 W/m2
16:09 7.9 °C 2.6 °C 1006.7 hPa WSW 0.3 km/h 8 km/h 69% 0 mm 16 W/m2
16:13 7.8 °C 2.5 °C 1007 hPa WSW 0.5 km/h 8 km/h 69% 0 mm 9 W/m2
16:19 7.8 °C 2.4 °C 1007 hPa West 1 km/h 11.3 km/h 69% 0 mm 5 W/m2
16:24 7.7 °C 2.4 °C 1007.3 hPa West 0.5 km/h 11.3 km/h 69.1% 0 mm 0 W/m2
16:29 7.7 °C 2.6 °C 1007.3 hPa Calm   11.3 km/h 69.8% 0 mm 0 W/m2
16:34 7.7 °C 2.6 °C 1007.3 hPa West 0.2 km/h 11.3 km/h 69.9% 0 mm 0 W/m2
16:39 7.7 °C 2.4 °C 1007.3 hPa West 1.8 km/h 20.9 km/h 69.1% 0 mm 0 W/m2
16:44 7.7 °C 2.4 °C 1007.7 hPa WNW 2.1 km/h 20.9 km/h 69.2% 0 mm 0 W/m2
16:49 7.7 °C 2.2 °C 1007.7 hPa West 1.1 km/h 20.9 km/h 68% 0 mm 0 W/m2
16:54 7.7 °C 2.2 °C 1007.7 hPa West 4.2 km/h 20.9 km/h 67.9% 0 mm 0 W/m2
16:59 7.8 °C 2 °C 1007.7 hPa West 0.6 km/h 20.9 km/h 67% 0 mm 0 W/m2
17:04 7.8 °C 2.1 °C 1008 hPa West 0.2 km/h 20.9 km/h 67% 0 mm 0 W/m2
17:09 7.8 °C 2.1 °C 1008 hPa West 1.3 km/h 12.9 km/h 67.3% 0 mm 0 W/m2
17:14 7.7 °C 1.9 °C 1008 hPa WSW 3.4 km/h 17.7 km/h 66.5% 0 mm 0 W/m2
17:19 7.8 °C 1.8 °C 1008 hPa West 3.9 km/h 17.7 km/h 65.8% 0 mm 0 W/m2
17:24 7.8 °C 1.8 °C 1008 hPa West 4 km/h 17.7 km/h 65.6% 0 mm 0 W/m2
17:29 7.8 °C 1.5 °C 1008.4 hPa West 9.8 km/h 20.9 km/h 64.4% 0 mm 0 W/m2
17:34 7.9 °C 1.4 °C 1008.4 hPa WNW 14 km/h 29 km/h 63.6% 0 mm 0 W/m2
17:39 7.9 °C 1.3 °C 1008.4 hPa WNW 9 km/h 29 km/h 63% 0 mm 0 W/m2
17:44 7.9 °C 1.4 °C 1008.7 hPa WNW 5.8 km/h 29 km/h 63.6% 0 mm 0 W/m2
17:49 7.8 °C 1.4 °C 1008.7 hPa WNW 7.7 km/h 29 km/h 64% 0 mm 0 W/m2
17:54 7.7 °C 1.3 °C 1008.7 hPa WNW 4.7 km/h 29 km/h 64% 0 mm 0 W/m2
17:59 7.7 °C 1.4 °C 1008.7 hPa WNW 2.3 km/h 29 km/h 64.6% 0 mm 0 W/m2
18:04 7.6 °C 1.4 °C 1008.7 hPa West 3.4 km/h 29 km/h 65% 0 mm 0 W/m2
18:09 7.4 °C 1.3 °C 1008.7 hPa West 6.9 km/h 24.1 km/h 65% 0 mm 0 W/m2
18:14 7.3 °C 1.2 °C 1008.7 hPa West 8.5 km/h 25.7 km/h 65% 0 mm 0 W/m2
18:19 7.3 °C 1.1 °C 1008.7 hPa West 7.6 km/h 25.7 km/h 65% 0 mm 0 W/m2
18:24 7.2 °C 1.1 °C 1009 hPa WNW 9.5 km/h 29 km/h 65% 0 mm 0 W/m2
18:29 7.1 °C 0.9 °C 1009 hPa West 9.3 km/h 29 km/h 65% 0 mm 0 W/m2
18:34 7.1 °C 0.9 °C 1009.4 hPa West 5 km/h 29 km/h 65% 0 mm 0 W/m2
18:39 7 °C 1.1 °C 1009.4 hPa WNW 7.6 km/h 22.5 km/h 66% 0 mm 0 W/m2
18:44 6.9 °C 1 °C 1009.4 hPa WNW 13.4 km/h 27.4 km/h 66% 0 mm 0 W/m2
18:49 6.9 °C 1 °C 1009.4 hPa WNW 10.9 km/h 27.4 km/h 66% 0 mm 0 W/m2
18:54 6.8 °C 1.1 °C 1009.7 hPa West 5.8 km/h 27.4 km/h 66.5% 0 mm 0 W/m2
18:59 6.8 °C 1.1 °C 1009.7 hPa WNW 2.6 km/h 27.4 km/h 67% 0 mm 0 W/m2
19:04 6.7 °C 1 °C 1009.7 hPa West 2.6 km/h 27.4 km/h 67% 0 mm 0 W/m2
19:09 6.6 °C 0.9 °C 1009.7 hPa WSW 2.6 km/h 16.1 km/h 67% 0 mm 0 W/m2
19:14 6.5 °C 0.8 °C 1009.7 hPa West 1.9 km/h 19.3 km/h 67% 0 mm 0 W/m2
19:19 6.4 °C 0.7 °C 1010 hPa WSW 0.8 km/h 19.3 km/h 67% 0 mm 0 W/m2
19:24 6.3 °C 0.7 °C 1010 hPa WSW 2.6 km/h 19.3 km/h 67% 0 mm 0 W/m2
19:29 6.3 °C 0.6 °C 1010 hPa WSW 5.6 km/h 19.3 km/h 67% 0 mm 0 W/m2
19:34 6.2 °C 0.7 °C 1010 hPa WSW 3.2 km/h 19.3 km/h 67.7% 0 mm 0 W/m2
19:38 6.2 °C 0.7 °C 1010 hPa West 0.2 km/h 16.1 km/h 68% 0 mm 0 W/m2
Hartford County Weather
Compliments of Weather Underground - 2 mb